ヴィルト第1彗星

63P/Wild 1 (2013)

English version
Home page
Total 6,336 html files since Dec. 4, 1995
Updated on February 4, 2008

---------------------------------------------------------------------

・ プロフィール

・ 軌道要素

Perturbed ephemeris below is based on elements from MPC 36654. 

 Epoch = 2456400.50000 TT   T = 2456393.28047 TT
 Peri. =  169.00554         a =     5.5837970 AU
 Node  =  358.01179 J2000.0 e =     0.6506917
 Incl. =   19.78175         q =     1.9504664 AU

・ 星図

・ 光度変化

        m1 = 4.0 + 5 logΔ + 30 log r

---------------------------------------------------------------------

軌道要素はMinor Planet & Comet Ephemeris Serviceで計算したものです。
星図はステラナビゲータ Ver.8 (アストロアーツ) で作成したものです。
光度グラフはComet for Windowsで作成したものです。

---------------------------------------------------------------------

Copyright(C) 1995-2008 Seiichi Yoshida (comet@aerith.net). All rights reserved.